"2009-01-08 00:00:00",521640,22.61,324,3.772,1.396,12.38,103.3401,7.827,9.09,31.17,0,110,13.38,8.61,286.0
"2009-01-08 00:00:30",521641,24.07,327.1,4.611,1.061,12.47,103.3266,7.792,9.05,30.91,0,110,13.38,8.57,289.1
"2009-01-08 00:01:00",521642,25.87,327.8,5.413,2.162,13.01,103.3209,7.778,9.06,31.01,0,110,13.38,8.56,289.8
"2009-01-08 00:01:30",521643,26.08,326.9,5.036,1.322,12.86,103.3209,7.778,9.03,30.8,0,110,13.38,8.56,288.9
"2009-01-08 00:02:00",521644,26.48,327.1,4.964,1.179,12.9,103.3206,7.777,9.03,30.97,0,110,13.38,8.56,289.1
"2009-01-08 00:02:30",521645,23.09,322.4,4.983,1.84,12.94,103.3209,7.778,9.03,31.05,0,110,13.39,8.56,284.4
"2009-01-08 00:03:00",521646,25.31,325.8,4.059,1.104,13.53,103.3209,7.778,9.03,30.63,0,110,13.39,8.56,287.8
"2009-01-08 00:03:30",521647,25.32,329.2,4.892,1.039,13.32,103.3209,7.778,9.02,30.69,0,110,13.39,8.56,291.2
"2009-01-08 00:04:00",521648,25.8,324.4,4.004,0.936,13.26,103.3209,7.778,9.02,30.78,0,110,13.39,8.56,286.4
"2009-01-08 00:04:30",521649,23.48,327,4.094,1.152,13.11,103.3209,7.778,9.02,30.66,0,110,13.39,8.56,289.0
"2009-01-08 00:05:00",521650,21.33,330.9,3.999,1.622,13.21,103.3209,7.778,9.01,30.72,0,110,13.39,8.56,292.9
"2009-01-08 00:05:30",521651,23.09,328.4,5.876,1.744,12.86,103.3209,7.778,9.03,30.93,0,110,13.39,8.56,290.4
"2009-01-08 00:06:00",521652,24.37,330.1,5.193,1.111,12.71,103.3209,7.778,9.03,31.15,0,110,13.39,8.56,292.1
"2009-01-08 00:06:30",521653,23.84,323.6,4.851,1.015,12.87,103.3209,7.778,9.02,31.19,0,110,13.39,8.56,285.6
"2009-01-08 00:07:00",521654,25.19,323.6,3.621,2.02,13.3,103.3209,7.778,9.01,31,0,110,13.39,8.56,285.6
"2009-01-08 00:07:30",521655,25.69,329.2,4.041,1.289,13.29,103.3209,7.778,9.02,30.51,0,110,13.39,8.56,291.2
"2009-01-08 00:08:00",521656,26.69,328.8,4.104,1.171,13.2,103.3209,7.778,9.01,30.65,0,110,13.39,8.56,290.8
"2009-01-08 00:08:30",521657,23.43,326.5,4.456,1.746,12.99,103.3209,7.778,8.99,30.75,0,110,13.39,8.56,288.5
"2009-01-08 00:09:00",521658,20.2,330.9,5.003,1.43,12.92,103.3209,7.778,9.02,31.23,0,110,13.39,8.56,292.9
"2009-01-08 00:09:30",521659,22.1,325.6,3.855,2.167,12.76,103.3209,7.778,9.02,31.25,0,110,13.39,8.56,287.6
"2009-01-08 00:10:00",521660,24,331,4.15,1.744,12.84,103.3209,7.778,9.02,30.99,0,110,13.39,8.56,293.0
"2009-01-08 00:10:30",521661,26.54,330.6,4.039,0.971,12.99,103.3209,7.778,9,30.5,0,110,13.39,8.56,292.6
"2009-01-08 00:11:00",521662,25.53,332.5,5.319,1.057,12.97,103.3209,7.778,9.01,30.88,0,109.9,13.39,8.56,294.5
"2009-01-08 00:11:30",521663,25.92,328,4.363,1.459,12.96,103.3209,7.778,9.01,31.02,0,109.9,13.39,8.56,290.0
"2009-01-08 00:12:00",521664,24.26,329,5.521,1.557,12.83,103.3209,7.778,9.03,31.04,0,109.9,13.39,8.56,291.0
"2009-01-08 00:12:30",521665,25.14,327.9,4.07,0.983,13.12,103.3209,7.778,9.02,31,0,109.9,13.39,8.56,289.9
"2009-01-08 00:13:00",521666,25.76,330,4.425,1.633,13.34,103.3209,7.778,9.01,30.67,0,110,13.39,8.56,292.0
"2009-01-08 00:13:30",521667,25.35,328.3,4.475,1.364,13.18,103.3209,7.778,9.02,30.76,0,110,13.39,8.56,290.3
"2009-01-08 00:14:00",521668,22.22,327.2,5.623,1.51,12.98,103.3209,7.778,9.01,30.84,0,109.9,13.39,8.56,289.2
"2009-01-08 00:14:30",521669,22.08,329,4.99,1.087,13.25,103.3209,7.778,9,30.63,0,109.9,13.39,8.56,291.0
"2009-01-08 00:15:00",521670,22.56,325.1,5.556,0.901,13.07,103.3209,7.778,9.02,30.97,0,109.9,13.39,8.56,287.1
"2009-01-08 00:15:30",521671,22.39,333.6,4.747,1.691,12.81,103.3209,7.778,9.01,31,0,110,13.39,8.56,295.6
"2009-01-08 00:16:00",521672,24.54,332.9,3.443,1.339,12.75,103.3209,7.778,9.02,30.95,0,109.9,13.39,8.56,294.9
"2009-01-08 00:16:30",521673,25.68,331.5,4.906,0.822,12.95,103.3184,7.771,9,30.77,0,109.9,13.39,8.55,293.5
"2009-01-08 00:17:00",521674,23.29,327.1,4.45,1.031,13.24,103.3167,7.767,9,30.79,0,109.9,13.39,8.55,289.1
"2009-01-08 00:17:30",521675,23.64,333.8,3.618,0.956,13.02,103.3144,7.761,8.97,30.88,0,109.9,13.39,8.54,295.8
"2009-01-08 00:18:00",521676,25.47,327.1,5.129,1.285,13.54,103.3121,7.755,9,30.53,0,109.9,13.39,8.53,289.1
"2009-01-08 00:18:30",521677,23.1,326.6,4.228,1.279,13.06,103.3195,7.774,8.98,30.47,0,109.9,13.39,8.55,288.6
"2009-01-08 00:19:00",521678,22.12,324,6.114,1.706,13.1,103.3209,7.778,8.99,30.57,0,109.9,13.39,8.56,286.0
"2009-01-08 00:19:30",521679,21.24,327.9,5.02,1.382,12.74,103.3206,7.777,9,30.95,0,109.9,13.39,8.56,289.9
"2009-01-08 00:20:00",521680,25.61,319,4.233,1.02,12.85,103.3209,7.778,9.01,30.88,0,109.9,13.39,8.56,281.0
"2009-01-08 00:20:30",521681,23.24,327.9,12.21,1.709,13.18,103.3209,7.778,9,30.37,0,109.9,13.39,8.56,289.9
"2009-01-08 00:21:00",521682,21.79,334.4,5.897,1.423,12.95,103.3209,7.778,9,30.32,0,109.9,13.39,8.56,296.4
"2009-01-08 00:21:30",521683,20.73,332.2,5.47,1.342,12.65,103.3209,7.778,9.01,30.57,0,109.9,13.39,8.56,294.2
"2009-01-08 00:22:00",521684,24.09,328.8,4.788,2.539,12.73,103.3209,7.778,9.02,30.96,0,109.9,13.39,8.56,290.8
"2009-01-08 00:22:30",521685,25.45,331.1,4.602,1.904,12.74,103.3209,7.778,9.03,30.76,0,109.9,13.39,8.56,293.1
"2009-01-08 00:23:00",521686,25.78,336.5,3.489,1.371,13.14,103.3209,7.778,9.03,30.76,0,109.9,13.39,8.56,298.5
"2009-01-08 00:23:30",521687,25.09,335.3,4.459,1.209,12.93,103.3209,7.778,9.02,30.69,0,110,13.39,8.56,297.3
"2009-01-08 00:24:00",521688,24.05,332.3,4.964,1.363,12.84,103.3209,7.778,9.03,30.88,0,109.9,13.39,8.56,294.3
"2009-01-08 00:24:30",521689,24.47,331,4.579,0.775,12.83,103.3209,7.778,9.03,31.17,0,109.9,13.39,8.56,293.0
"2009-01-08 00:25:00",521690,25.49,336.6,4.375,1.424,13.27,103.3209,7.778,9.01,30.81,0,109.9,13.39,8.56,298.6
"2009-01-08 00:25:30",521691,24.57,333.1,3.839,1.14,12.67,103.3209,7.778,9.02,31.12,0,110,13.39,8.56,295.1
"2009-01-08 00:26:00",521692,24.71,330.3,4.737,1.238,13.08,103.3186,7.772,9.01,31.15,0,109.9,13.39,8.55,292.3
"2009-01-08 00:26:30",521693,22.86,328.8,6.268,1.115,12.93,103.3172,7.768,9,30.81,0,109.9,13.4,8.55,290.8
"2009-01-08 00:27:00",521694,22.69,330.5,4.349,1.108,13.1,103.3006,7.726,9.01,31.09,0,109.9,13.4,8.50,292.5
"2009-01-08 00:27:30",521695,23.31,329.3,4.792,1.07,13.02,103.2935,7.708,8.99,30.97,0,109.9,13.4,8.49,291.3
"2009-01-08 00:28:00",521696,24.22,330.8,4.324,1.279,13.18,103.2921,7.704,9,30.6,0,109.9,13.4,8.48,292.8
"2009-01-08 00:28:30",521697,23.19,331.3,5.971,1.382,13.18,103.302,7.729,9,30.61,0,109.9,13.4,8.51,293.3
"2009-01-08 00:29:00",521698,20.17,330.5,4.506,1.117,12.94,103.309,7.747,8.99,30.8,0,109.9,13.4,8.53,292.5
"2009-01-08 00:29:30",521699,21.61,329.4,5.692,1.026,12.72,103.3057,7.739,8.99,31.05,0,109.9,13.4,8.52,291.4
"2009-01-08 00:30:00",521700,21.82,332,4.744,1.001,13.12,103.3099,7.75,9,30.46,0,109.9,13.39,8.53,294.0
"2009-01-08 00:30:30",521701,21.2,333.8,4.214,0.989,12.63,103.3167,7.767,8.99,30.87,0,109.9,13.39,8.55,295.8
"2009-01-08 00:31:00",521702,21.2,333.6,4.288,0.836,12.67,103.3088,7.747,8.99,31.22,0,109.9,13.39,8.53,295.6
"2009-01-08 00:31:30",521703,21.84,327.7,4.153,1.046,12.48,103.2907,7.7,9,31.61,0,109.9,13.39,8.48,289.7
"2009-01-08 00:32:00",521704,22.77,330.6,4.712,1.263,13.15,103.287,7.691,9,31.09,0,109.9,13.39,8.47,292.6
"2009-01-08 00:32:30",521705,21.11,332.2,5.864,0.973,12.79,103.287,7.691,8.97,30.83,0,109.9,13.39,8.47,294.2
"2009-01-08 00:33:00",521706,23.11,335.7,4.476,0.978,12.99,103.287,7.691,8.98,30.79,0,109.9,13.39,8.47,297.7
"2009-01-08 00:33:30",521707,24.8,333.3,5.634,1.57,12.71,103.287,7.691,8.98,30.82,0,110,13.39,8.47,295.3
"2009-01-08 00:34:00",521708,23.76,331.2,6.806,1.976,12.78,103.287,7.691,8.99,30.96,0,109.9,13.39,8.47,293.2
"2009-01-08 00:34:30",521709,24.04,333.9,4.11,1.585,12.74,103.287,7.691,8.95,31.07,0,109.9,13.39,8.47,295.9
"2009-01-08 00:35:00",521710,24.89,334.1,4.514,0.654,13,103.287,7.691,8.97,31.15,0,109.9,13.39,8.47,296.1
"2009-01-08 00:35:30",521711,26.1,330.9,3.441,0.942,12.87,103.287,7.691,8.97,31.1,0,110,13.39,8.47,292.9
"2009-01-08 00:36:00",521712,25.95,332.8,3.546,0.943,13.1,103.287,7.691,8.97,31,0,109.9,13.4,8.47,294.8
"2009-01-08 00:36:30",521713,24.52,329.8,4.257,1.224,13.12,103.2873,7.692,8.97,30.83,0,109.9,13.4,8.47,291.8
"2009-01-08 00:37:00",521714,24.11,331.4,3.473,0.711,13.31,103.2887,7.695,8.96,30.91,0,109.9,13.4,8.47,293.4
"2009-01-08 00:37:30",521715,22.58,329.4,4.518,0.951,13.1,103.2913,7.702,8.98,30.87,0,109.9,13.4,8.48,291.4
"2009-01-08 00:38:00",521716,22.18,333,4.927,2.007,13.37,103.2904,7.7,8.99,30.85,0,109.9,13.4,8.48,295.0
"2009-01-08 00:38:30",521717,24.25,335.2,5.174,0.989,13.48,103.3065,7.741,8.97,30.19,0,109.9,13.4,8.52,297.2
"2009-01-08 00:39:00",521718,23.17,329.8,3.578,0.685,12.91,103.3206,7.777,8.98,30.51,0,109.9,13.4,8.56,291.8
"2009-01-08 00:39:30",521719,23.12,327.7,4.355,1.363,12.9,103.3212,7.778,8.99,31.14,0,109.9,13.4,8.56,289.7
"2009-01-08 00:40:00",521720,26.89,331.4,4.463,1.016,13.14,103.3209,7.778,9,30.7,0,109.9,13.4,8.56,293.4
"2009-01-08 00:40:30",521721,27.02,330.1,4.513,0.991,13.06,103.3209,7.778,9,30.83,0,109.9,13.4,8.56,292.1
"2009-01-08 00:41:00",521722,25.51,332.1,3.605,1.193,13.21,103.3212,7.778,9.03,30.99,0,109.9,13.4,8.56,294.1
"2009-01-08 00:41:30",521723,25.19,332.7,4.414,1.303,13.62,103.3209,7.778,9.02,30.57,0,110,13.4,8.56,294.7
"2009-01-08 00:42:00",521724,25.47,329.4,4.811,0.866,13.23,103.3209,7.778,9.03,30.2,0,109.9,13.4,8.56,291.4
"2009-01-08 00:42:30",521725,22.6,325.4,5.368,2.905,12.89,103.3232,7.784,9.03,30.86,0,109.9,13.4,8.56,287.4
"2009-01-08 00:43:00",521726,21.88,332.2,4.872,0.814,12.99,103.3218,7.78,9.04,31.05,0,109.9,13.4,8.56,294.2
"2009-01-08 00:43:30",521727,24.97,330,4.252,0.896,13.16,103.3212,7.778,9.06,30.87,0,109.9,13.4,8.56,292.0
"2009-01-08 00:44:00",521728,24.61,332.5,4.304,0.712,13.11,103.3209,7.778,9.07,30.68,0,109.9,13.4,8.56,294.5
"2009-01-08 00:44:30",521729,25.54,333.2,3.541,0.975,13.14,103.324,7.786,9.06,30.65,0,109.9,13.4,8.56,295.2
"2009-01-08 00:45:00",521730,25.31,333.4,3.958,1.254,13.34,103.3333,7.809,9.06,30.43,0,109.9,13.4,8.59,295.4
"2009-01-08 00:45:30",521731,24.15,335.6,3.07,1.047,13.19,103.3432,7.835,9.07,30.48,0,109.9,13.4,8.61,297.6
"2009-01-08 00:46:00",521732,24.77,331.2,3.734,1.04,12.97,103.3503,7.853,9.08,30.5,0,109.9,13.4,8.63,293.2
"2009-01-08 00:46:30",521733,25.35,332.8,3.678,0.795,12.93,103.3526,7.859,9.07,30.85,0,109.9,13.39,8.64,294.8
"2009-01-08 00:47:00",521734,25.82,330.8,3.812,1.238,13.33,103.3531,7.86,9.09,30.59,0,109.9,13.39,8.64,292.8
"2009-01-08 00:47:30",521735,25.36,330.2,5.069,0.937,13.21,103.3548,7.864,9.09,30.73,0,109.9,13.39,8.64,292.2
"2009-01-08 00:48:00",521736,25.48,333.6,4.119,0.913,13.29,103.3548,7.864,9.1,30.33,0,109.9,13.39,8.64,295.6
"2009-01-08 00:48:30",521737,23.85,335.3,4.747,1.225,13.35,103.3557,7.867,9.11,30.66,0,109.9,13.39,8.65,297.3
"2009-01-08 00:49:00",521738,24.78,334,3.599,0.97,13.35,103.356,7.867,9.08,30.5,0,109.9,13.39,8.65,296.0
"2009-01-08 00:49:30",521739,25.62,332.6,3.252,1.185,12.96,103.3548,7.864,9.12,30.48,0,110,13.39,8.64,294.6
"2009-01-08 00:50:00",521740,24.15,334.3,4.364,1.128,13.03,103.3557,7.867,9.13,30.59,0,109.9,13.39,8.65,296.3
"2009-01-08 00:50:30",521741,22.31,336.3,4.509,0.886,13.36,103.3554,7.866,9.1,30.12,0,109.9,13.39,8.65,298.3
"2009-01-08 00:51:00",521742,22.53,335.8,4.848,1.292,13.78,103.3658,7.893,9.13,29.81,0,109.9,13.39,8.67,297.8
"2009-01-08 00:51:30",521743,23.83,334.3,3.757,0.799,13.07,103.376,7.918,9.15,30.23,0,109.9,13.4,8.70,296.3
"2009-01-08 00:52:00",521744,23.76,336.6,3.847,0.791,13.1,103.3847,7.941,9.16,30.22,0,109.9,13.4,8.72,298.6
"2009-01-08 00:52:30",521745,23.76,337.2,4.594,1.035,12.89,103.389,7.952,9.16,30.47,0,109.9,13.4,8.73,299.2
"2009-01-08 00:53:00",521746,23.82,336.3,3.585,1.087,13.07,103.3887,7.951,9.17,30.68,0,109.9,13.4,8.73,298.3
"2009-01-08 00:53:30",521747,24.48,336.4,4.39,0.955,13.05,103.3893,7.952,9.18,30.39,0,109.9,13.4,8.73,298.4
"2009-01-08 00:54:00",521748,23.49,338.8,4.137,1.112,13.07,103.3893,7.952,9.2,30.46,0,109.9,13.4,8.73,300.8
"2009-01-08 00:54:30",521749,23.8,336.6,3.86,1.461,13.13,103.389,7.952,9.17,30.45,0,109.9,13.4,8.73,298.6
"2009-01-08 00:55:00",521750,23.82,336.4,4.079,0.807,13.37,103.3893,7.952,9.18,30.36,0,109.9,13.4,8.73,298.4
"2009-01-08 00:55:30",521751,23.59,335.8,2.993,1.036,12.97,103.389,7.952,9.19,30.36,0,109.9,13.4,8.73,297.8
"2009-01-08 00:56:00",521752,24.7,336.9,3.065,0.967,12.93,103.389,7.952,9.19,30.41,0,109.9,13.4,8.73,298.9
"2009-01-08 00:56:30",521753,23.12,336.1,3.964,1.013,13.32,103.3901,7.955,9.2,30.24,0,109.9,13.4,8.73,298.1
"2009-01-08 00:57:00",521754,22.06,338.2,3.642,1.143,13.46,103.4011,7.983,9.21,29.67,0,109.9,13.4,8.76,300.2
"2009-01-08 00:57:30",521755,22.71,340.2,3.767,1.268,13.26,103.4161,8.02,9.24,29.81,0,110,13.4,8.80,302.2
"2009-01-08 00:58:00",521756,22.63,334.8,4.513,0.8,13.25,103.4229,8.04,9.24,29.77,0,109.9,13.4,8.82,296.8
"2009-01-08 00:58:30",521757,21.36,337.2,4.732,2.003,13.33,103.4226,8.04,9.25,29.74,0,109.9,13.4,8.82,299.2
"2009-01-08 00:59:00",521758,21.48,337,4.557,0.874,13.23,103.4426,8.09,9.27,29.72,0,109.9,13.4,8.87,299.0
"2009-01-08 00:59:30",521759,22.58,335.5,4.311,0.905,12.71,103.4553,8.12,9.3,30.33,0,109.9,13.4,8.90,297.5
"2009-01-08 01:00:00",521760,21.72,338.6,4.064,0.788,12.71,103.4548,8.12,9.31,30.58,0,109.9,13.4,8.90,300.6
"2009-01-08 01:00:30",521761,22.22,339.2,2.845,0.858,12.9,103.4463,8.1,9.3,30.29,0,109.9,13.4,8.88,301.2
"2009-01-08 01:01:00",521762,22.89,341.1,4.342,1.035,12.96,103.4457,8.1,9.31,30.23,0,109.9,13.4,8.88,303.1
"2009-01-08 01:01:30",521763,23.15,339.6,4.216,1.02,13.07,103.4472,8.1,9.33,30.07,0,110,13.4,8.88,301.6
"2009-01-08 01:02:00",521764,23.06,339.8,4.97,0.965,13.2,103.4477,8.1,9.34,30.25,0,109.9,13.4,8.88,301.8
"2009-01-08 01:02:30",521765,23.51,340.5,3.479,0.83,13.1,103.4533,8.12,9.33,29.94,0,109.9,13.4,8.90,302.5
"2009-01-08 01:03:00",521766,24.07,338.8,3.708,1.032,13.28,103.4565,8.12,9.33,29.8,0,109.9,13.39,8.90,300.8
"2009-01-08 01:03:30",521767,24.51,338.5,3.732,0.923,13.08,103.457,8.13,9.33,29.89,0,109.9,13.39,8.91,300.5
"2009-01-08 01:04:00",521768,23.76,337.9,3.605,0.774,13.12,103.4565,8.12,9.36,29.91,0,109.9,13.39,8.90,299.9
"2009-01-08 01:04:30",521769,22.6,339.5,4.429,0.828,13.07,103.4601,8.13,9.36,30.03,0,109.9,13.39,8.91,301.5
"2009-01-08 01:05:00",521770,22.19,339,3.802,0.71,13.43,103.4717,8.16,9.37,29.92,0,109.9,13.39,8.94,301.0
"2009-01-08 01:05:30",521771,22.2,340.4,3.455,1.222,13.35,103.4847,8.2,9.39,29.61,0,109.9,13.39,8.98,302.4
"2009-01-08 01:06:00",521772,23.75,340.3,3.896,0.992,13.44,103.4909,8.21,9.42,29.63,0,109.9,13.39,8.99,302.3
"2009-01-08 01:06:30",521773,23.81,340.6,3.359,1.104,13.3,103.4909,8.21,9.41,29.52,0,109.9,13.39,8.99,302.6
"2009-01-08 01:07:00",521774,23,341.5,3.984,0.589,13.29,103.4957,8.22,9.44,29.69,0,109.9,13.39,9.01,303.5
"2009-01-08 01:07:30",521775,21.3,342.9,4.581,0.667,13.25,103.5132,8.27,9.45,29.62,0,109.9,13.39,9.05,304.9
"2009-01-08 01:08:00",521776,21.12,345.3,3.954,0.839,13.08,103.5234,8.3,9.48,29.73,0,109.9,13.4,9.08,307.3
"2009-01-08 01:08:30",521777,21.54,344.6,4.481,0.732,13.04,103.5242,8.3,9.49,29.5,0,109.9,13.4,9.08,306.6
"2009-01-08 01:09:00",521778,21.86,344.5,3.769,0.877,13.31,103.5248,8.3,9.5,29.51,0,109.9,13.4,9.08,306.5
"2009-01-08 01:09:30",521779,21.07,342.1,4.187,1.015,13.39,103.5333,8.32,9.52,29.3,0,110,13.4,9.10,304.1
"2009-01-08 01:10:00",521780,20.68,336.5,4.304,0.833,13.28,103.5556,8.38,9.56,29.16,0,109.9,13.4,9.16,298.5
"2009-01-08 01:10:30",521781,19.42,339.3,4.26,0.94,12.54,103.5587,8.39,9.57,29.56,0,109.9,13.4,9.17,301.3
"2009-01-08 01:11:00",521782,19.91,341.9,3.119,1.359,12.91,103.5584,8.38,9.59,29.8,0,109.9,13.4,9.17,303.9
"2009-01-08 01:11:30",521783,21.95,341.2,3.963,0.889,12.95,103.5584,8.38,9.58,29.53,0,109.9,13.4,9.17,303.2
"2009-01-08 01:12:00",521784,21.28,335.5,4.201,0.805,12.68,103.5581,8.38,9.62,29.61,0,109.9,13.4,9.17,297.5
"2009-01-08 01:12:30",521785,22.41,331.8,4.031,0.844,13.07,103.5581,8.38,9.61,29.76,0,109.9,13.4,9.17,293.8
"2009-01-08 01:13:00",521786,22.12,333.9,2.129,0.911,13.15,103.5581,8.38,9.61,29.51,0,109.9,13.4,9.17,295.9
"2009-01-08 01:13:30",521787,22.3,332.6,3.488,1.172,13.43,103.5626,8.4,9.63,29.18,0,110,13.4,9.18,294.6
"2009-01-08 01:14:00",521788,22.25,331.7,4.972,0.826,13.48,103.5832,8.45,9.63,29.2,0,109.9,13.4,9.23,293.7
"2009-01-08 01:14:30",521789,20.13,334.6,4.292,0.976,13.25,103.5923,8.47,9.65,29.35,0,109.9,13.4,9.25,296.6
"2009-01-08 01:15:00",521790,20.59,336,3.833,1.75,13.41,103.5923,8.47,9.65,29.23,0,109.9,13.4,9.25,298.0
"2009-01-08 01:15:30",521791,21.52,335.6,4.541,1.335,13.06,103.592,8.47,9.66,29.2,0,109.9,13.4,9.25,297.6
"2009-01-08 01:16:00",521792,20.57,334.9,4.637,0.873,13.24,103.5926,8.47,9.68,29.21,0,109.9,13.4,9.25,296.9
"2009-01-08 01:16:30",521793,20.38,334.3,4.318,0.948,13.12,103.5968,8.48,9.69,29.28,0,109.9,13.4,9.26,296.3
"2009-01-08 01:17:00",521794,20.43,335.6,5.125,1.003,13.36,103.6047,8.5,9.69,29.15,0,109.9,13.4,9.28,297.6
"2009-01-08 01:17:30",521795,22.39,326.3,2.935,1.142,13.62,103.6191,8.54,9.72,28.82,0,110,13.4,9.32,288.3
"2009-01-08 01:18:00",521796,20.97,328.9,4.014,0.939,13.51,103.6259,8.56,9.74,28.7,0,109.9,13.4,9.34,290.9
"2009-01-08 01:18:30",521797,19.72,338.2,4.469,1.058,13.33,103.627,8.56,9.75,28.78,0,109.9,13.4,9.34,300.2
"2009-01-08 01:19:00",521798,18.81,337.6,5.031,0.766,13.26,103.6363,8.58,9.78,28.96,0,110,13.39,9.37,299.6
"2009-01-08 01:19:30",521799,20.35,336.4,4.307,0.781,13.08,103.6434,8.6,9.78,29,0,109.9,13.39,9.38,298.4
"2009-01-08 01:20:00",521800,21.77,338.1,4.297,0.669,13.07,103.6519,8.62,9.81,29.01,0,110,13.39,9.41,300.1
"2009-01-08 01:20:30",521801,20.27,335.6,3.442,1.018,12.94,103.6572,8.64,9.8,29.18,0,109.9,13.39,9.42,297.6
"2009-01-08 01:21:00",521802,20.36,332.9,2.9,1.347,13.28,103.6581,8.64,9.82,29.13,0,110,13.39,9.42,294.9
"2009-01-08 01:21:30",521803,21.99,336.5,3.135,1.332,13.31,103.6595,8.64,9.82,28.9,0,110,13.39,9.43,298.5
"2009-01-08 01:22:00",521804,21.33,334.9,4.407,1.204,13.39,103.6598,8.64,9.84,28.89,0,110,13.39,9.43,296.9
"2009-01-08 01:22:30",521805,20.95,336.6,3.768,0.912,13.31,103.6598,8.64,9.85,28.89,0,110,13.39,9.43,298.6
"2009-01-08 01:23:00",521806,21.26,334,3.692,1.106,13.4,103.6598,8.64,9.87,28.99,0,110,13.39,9.43,296.0
"2009-01-08 01:23:30",521807,21.8,332.4,4.347,0.847,13.74,103.6663,8.66,9.85,28.6,0,110,13.39,9.44,294.4
"2009-01-08 01:24:00",521808,20.07,332.9,3.998,0.861,13.54,103.6756,8.68,9.89,28.7,0,110,13.39,9.47,294.9
"2009-01-08 01:24:30",521809,19.37,336.9,3.479,1.133,13.22,103.6886,8.72,9.89,28.84,0,110,13.39,9.50,298.9
"2009-01-08 01:25:00",521810,19.44,336.7,3.935,1.272,13.11,103.692,8.73,9.91,28.98,0,109.9,13.39,9.51,298.7
"2009-01-08 01:25:30",521811,19.94,326.3,4.232,1.252,13.05,103.6897,8.72,9.91,28.99,0,110,13.4,9.50,288.3
"2009-01-08 01:26:00",521812,18.24,326.1,4.836,0.958,13.2,103.6832,8.7,9.93,29.05,0,110,13.4,9.49,288.1
"2009-01-08 01:26:30",521813,18.59,331,5.257,1.008,13.14,103.6753,8.68,9.91,29.14,0,110,13.4,9.47,293.0
"2009-01-08 01:27:00",521814,19.08,336.8,4.345,0.838,13.55,103.6747,8.68,9.9,28.65,0,110,13.4,9.46,298.8
"2009-01-08 01:27:30",521815,19.75,333.5,4.678,1.002,13.13,103.6778,8.69,9.9,28.8,0,110,13.4,9.47,295.5
"2009-01-08 01:28:00",521816,17.99,337.5,3.289,0.878,12.86,103.675,8.68,9.91,29.09,0,110,13.4,9.47,299.5
"2009-01-08 01:28:30",521817,17.52,333.2,5.018,0.932,12.74,103.6694,8.67,9.9,29.3,0,110,13.4,9.45,295.2
"2009-01-08 01:29:00",521818,15.81,330.2,4.746,0.796,12.75,103.6598,8.64,9.89,29.35,0,110,13.4,9.43,292.2
"2009-01-08 01:29:30",521819,17.44,328.8,4.417,0.862,12.72,103.6595,8.64,9.88,29.33,0,110,13.4,9.43,290.8
"2009-01-08 01:30:00",521820,16.8,333.3,5.087,1.547,12.68,103.649,8.62,9.87,29.31,0,110,13.39,9.40,295.3
"2009-01-08 01:30:30",521821,17.39,331.9,5.065,2.226,12.39,103.6296,8.57,9.86,29.51,0,110,13.4,9.35,293.9
"2009-01-08 01:31:00",521822,20.69,336.2,3.466,0.801,12.8,103.6259,8.56,9.84,29.82,0,110,13.4,9.34,298.2
"2009-01-08 01:31:30",521823,17.85,339.8,5.156,0.967,12.55,103.6259,8.56,9.81,29.88,0,110,13.4,9.34,301.8
"2009-01-08 01:32:00",521824,17.56,333.2,7.342,1.348,12.52,103.6084,8.51,9.8,29.91,0,110,13.4,9.29,295.2
"2009-01-08 01:32:30",521825,18.46,340.8,3.096,1.127,12.42,103.5954,8.48,9.78,30.01,0,109.9,13.4,9.26,302.8
"2009-01-08 01:33:00",521826,21.12,336.6,3.392,0.891,12.82,103.592,8.47,9.75,30.01,0,110,13.4,9.25,298.6
"2009-01-08 01:33:30",521827,19.94,334.7,3.842,1.016,12.66,103.59,8.47,9.74,30.1,0,110,13.4,9.25,296.7
"2009-01-08 01:34:00",521828,18.5,337.5,4.166,0.9,12.7,103.5703,8.42,9.72,30.19,0,110,13.4,9.20,299.5
"2009-01-08 01:34:30",521829,17.72,340,4.21,0.667,12.84,103.5584,8.38,9.69,30.11,0,110,13.4,9.17,302.0
"2009-01-08 01:35:00",521830,18.39,339.6,2.976,0.952,13,103.5581,8.38,9.68,30.06,0,110,13.4,9.17,301.6
"2009-01-08 01:35:30",521831,18.3,337.6,3.913,0.805,12.77,103.5581,8.38,9.65,29.68,0,110,13.39,9.17,299.6
"2009-01-08 01:36:00",521832,18.3,340,4.168,0.88,12.77,103.5581,8.38,9.68,29.94,0,110,13.39,9.17,302.0
"2009-01-08 01:36:30",521833,17.5,335.9,3.998,0.921,12.48,103.5581,8.38,9.64,30.19,0,110,13.39,9.17,297.9
"2009-01-08 01:37:00",521834,18.65,340.3,1.866,1.141,12.82,103.5581,8.38,9.65,30.05,0,110,13.39,9.17,302.3
"2009-01-08 01:37:30",521835,19.59,340.7,3.7,0.9,13.12,103.5581,8.38,9.64,29.6,0,110,13.39,9.17,302.7
"2009-01-08 01:38:00",521836,18.75,333.6,4.04,0.795,12.81,103.5708,8.42,9.65,29.74,0,110,13.39,9.20,295.6
"2009-01-08 01:38:30",521837,18.74,332.6,4.811,0.481,13.04,103.59,8.47,9.65,29.66,0,110,13.39,9.25,294.6
"2009-01-08 01:39:00",521838,18.15,335.1,3.348,0.74,13.08,103.592,8.47,9.67,29.78,0,110,13.39,9.25,297.1
"2009-01-08 01:39:30",521839,17.55,331.6,4.598,0.817,12.77,103.592,8.47,9.68,29.9,0,110,13.39,9.25,293.6
"2009-01-08 01:40:00",521840,18.8,327.9,4.292,1.18,12.75,103.592,8.47,9.68,30.03,0,110,13.39,9.25,289.9
"2009-01-08 01:40:30",521841,18.87,327.7,3.958,0.972,12.7,103.592,8.47,9.69,30.06,0,110,13.39,9.25,289.7
"2009-01-08 01:41:00",521842,17.37,328.8,3.873,0.762,12.89,103.592,8.47,9.67,30.08,0,110,13.39,9.25,290.8
"2009-01-08 01:41:30",521843,16.8,330.2,3.837,0.902,12.56,103.592,8.47,9.67,30.23,0,110,13.39,9.25,292.2
"2009-01-08 01:42:00",521844,17.46,330.3,6.367,1.192,12.54,103.5742,8.43,9.68,30.43,0,110,13.4,9.21,292.3
"2009-01-08 01:42:30",521845,18.19,329.8,4.671,1.407,12.55,103.5584,8.38,9.65,30.48,0,110,13.4,9.17,291.8
"2009-01-08 01:43:00",521846,19.63,332.3,3.415,0.741,12.7,103.5581,8.38,9.65,30.67,0,110,13.4,9.17,294.3
"2009-01-08 01:43:30",521847,18.76,330.4,4.428,0.695,12.63,103.5502,8.36,9.61,30.72,0,110,13.4,9.15,292.4
"2009-01-08 01:44:00",521848,18.53,333.4,4.206,0.635,12.66,103.5296,8.31,9.62,30.83,0,110,13.4,9.09,295.4
"2009-01-08 01:44:30",521849,19.18,333.7,3.68,1.343,12.89,103.5242,8.3,9.59,30.66,0,110,13.4,9.08,295.7
"2009-01-08 01:45:00",521850,20.9,335.4,2.322,1.109,13.08,103.5242,8.3,9.56,30.46,0,110,13.4,9.08,297.4
"2009-01-08 01:45:30",521851,20.82,333.8,3.724,0.885,12.85,103.5242,8.3,9.56,30.51,0,110,13.4,9.08,295.8
"2009-01-08 01:46:00",521852,20.69,331.3,4.087,1.006,12.98,103.5242,8.3,9.55,30.51,0,110,13.4,9.08,293.3
"2009-01-08 01:46:30",521853,20.76,327.5,4.772,0.827,12.85,103.5242,8.3,9.54,30.75,0,110,13.4,9.08,289.5
"2009-01-08 01:47:00",521854,19.99,326.4,3.788,0.684,13.14,103.5242,8.3,9.54,30.88,0,110,13.4,9.08,288.4
"2009-01-08 01:47:30",521855,18.64,329.2,4.47,1.147,12.79,103.5242,8.3,9.53,30.95,0,110,13.4,9.08,291.2
"2009-01-08 01:48:00",521856,17.09,334.9,3.607,0.8,12.7,103.511,8.26,9.54,30.95,0,110,13.4,9.04,296.9
"2009-01-08 01:48:30",521857,17.26,328.5,4.219,0.789,12.65,103.498,8.23,9.49,31.02,0,110,13.4,9.01,290.5
"2009-01-08 01:49:00",521858,17.93,330.7,3.759,1.206,12.67,103.4903,8.21,9.48,31.09,0,110,13.4,8.99,292.7
"2009-01-08 01:49:30",521859,18.35,331.5,4.561,0.877,12.47,103.4903,8.21,9.46,31.04,0,110,13.4,8.99,293.5
"2009-01-08 01:50:00",521860,19.15,334.4,3.4,0.842,12.74,103.4884,8.21,9.47,30.99,0,110,13.4,8.99,296.4
"2009-01-08 01:50:30",521861,18.43,331.8,4.199,1.448,12.58,103.4782,8.18,9.43,31.11,0,110,13.4,8.96,293.8
"2009-01-08 01:51:00",521862,20.85,336.4,2.441,0.957,12.87,103.4708,8.16,9.42,31.03,0,110,13.4,8.94,298.4
"2009-01-08 01:51:30",521863,20.74,335.5,3.676,0.75,13.16,103.4737,8.17,9.42,30.57,0,110,13.39,8.95,297.5